Location: Goudex
(43.3760°N, 0.9543°E)
Time: 05:48:31
(UTC+00:00)

Cosmos 1515 Rocket - Pass Details

Date: 20 November 2019
Orbit: 605 x 631 km, 82.5° (Epoch: 05 December)

Event Time Altitude Azimuth Distance (km) Brightness Sun altitude
Exits shadow 05:17:33 - 350° (N) 2,673 6.6 -17.6°
Reaches altitude 10° 05:19:18 10° 350° (N) 1,963 5.9 -17.3°
Maximum altitude 05:23:38 83° 264° (W) 616 3.4 -16.5°
Drops below altitude 10° 05:27:57 10° 176° (S) 1,952 6.3 -15.8°
Sets 05:30:10 0° 175° (S) 2,853 7.2 -15.4°
